Probability
0 0 0 0 0 0 0 0 0 0 0 0 0 0 0 0 0 0 0 0 0 0 0 0 0 0 0 0 0 0 0 0 0 0 0 0 0 0
0 0 0 0 0 0 0 0 0 0 0 0 0 0 0 0 0 0 0 0 0 0 0 0 0 0 0 0 0 0 0 0 0 0 0 0 0 0
0 0 0 0 0 0 0 0 0 0 0 0 0 0 0 0 0 0 0 0 0 0 0 0 0 0 0 0 0 0 0 0 0 0 0 0 0 0
0 0 0 0 0 0 0 0 0 0 0 0 0 0 0 0 0 0 0 0 0 0 0 0 0 0 0 0 0 0 0 0 0 0 0 0 0 0
0 0 0 0 0 0 0 0 0 0 0 0 0 0 0 0 0 0 0 0 0 0 0 0 0 0 0 0 0 0 0 0 0 0 0 0 0 0
0 0 0 0 0 0 0 0 0 0 0 0 0 0 0 0 0 0 0 0 0 0 0 0 0 0 0 0 0 0 0 0 0 0 0 0 0 0
0 0 0 0 0 0 0 0 0 0 0 0 0 0 0 0 0 0 0 0 0 0 0 0 0 0 0 0 0 0 0 0 0 0 0 0 0 0
0 0 0 0 0 0 0 0 0 0 0 0 0 0 0 0 0 0 0 0 0 0 0 0 0 0 0 0 0 0 0 0 0 0 0 0 0 0
0 0 0 0 0 0 0 0 0 0 0 0 0 0 0 0 0 0 0 0 0 0 0 0 0 0 0 0 0 0 0 0 0 0 0 0 0 0
0 0 0 0 0 0 0 0 0 0 0 0 0 0 0 0 0 0 0 0 0 0 0 0 0 0 0 0 0 0 0 0 0 0 0 0 0 0
0 0 0 0 0 0 0 0 0 0 0 0 0 0 0 0 0 0 0 0 0 0 0 0 0 0 0 0 0 0 0 0 0 0 0 0 0 0
0 0 0 0 0 0 0 0 0 0 0 0 0 0 0 0 0 0 0 0 0 0 0 0 0 0 0 0 0 0 0 0 0 0 0 0 0 0
0 0 0 0 0 0 0 0 0 0 0 0 0 0 0 0 0 0 0 0 0 0 0 0 0 0 0 0 0 0 0 0 0 0 0 0 0 0
0 0 0 0 0 0 0 0 0 0 0 0 0 0 0 0 0 0 0 0 0 0 0 0 0 0 0 0 0 0 0 0 0 0 0 0 0 0
0 0 0 0 0 0 0 0 0 0 0 0 0 0 0 0 0 0 0 0 0 0 0 0 0 0 0 0 0 0 0 0 0 0 0 0 0 0
0 0 0 0 0 0 0 0 0 0 0 0 0 0 0 0 0 0 0 0 0 0 0 0 0 0 0 0 0 0 0 0 0 0 0 0 0 0
0 0 0 0 0 0 0 0 0 0 0 0 0 0 0 0 0 0 0 0 0 0 0 0 0 0 0 0 0 0 0 0 0 0 0 0 0 0
0 0 0 0 0 0 0 0 0 0 0 0 0 0 0 0 0 0 0 0 0 0 0 0 0 0 0 0 0 0 0 0 0 0 0 0 0 0
0 0 0 0 0 0 0 0 0 0 0 0 0 0 0 0 0 0 0 0 0 0 0 0 0 0 0 0 0 0 0 0 0 0 0 0 0 0
0 0 0 0 0 0 0 0 0 0 0 0 0 0 0 0 0 0 0 0 0 0 0 0 0 0 0 0 0 0 0 0 0 0 0 0 0 0
0 0 0 0 0 0 0 0 0 0 0 0 0 0 0 0 0 0 0 0 0 0 0 0 0 0 0 0 0 0 0 0 0 0 0 0 0 0
0 0 0 0 0 0 0 0 0 0 0 0 0 0 0 0 0 0 0 0 0 0 0 0 0 0 0 0 0 0 0 0 0 0 0 0 0 0
0 0 0 0 0 0 0 0 0 0 0 0 0 0 0 0 0 0 0 0 0 0 0 0 0 0 0 0 0 0 0 0 0 0 0 0 0 0
Height
5683 5686 5689 5692 5695 5697 5700 5703 5706 5708 5711 5713 5714 5715 5717 5719 5720 5722 5723 5724 5725 5726 5726 5727 5727 5727 5727 5727 5726 5726 5725 5724 5722 5721 5719 5717 5715 5714
5669 5672 5675 5678 5681 5684 5686 5689 5692 5695 5698 5700 5701 5703 5704 5706 5707 5709 5710 5711 5712 5713 5714 5714 5714 5714 5714 5714 5713 5713 5712 5711 5709 5707 5705 5704 5702 5700
5655 5658 5661 5664 5667 5670 5672 5675 5678 5681 5684 5687 5688 5689 5691 5693 5694 5695 5697 5698 5699 5700 5700 5701 5701 5701 5701 5700 5700 5699 5698 5697 5695 5693 5691 5689 5688 5686
5641 5644 5646 5649 5653 5656 5659 5661 5664 5666 5669 5673 5674 5676 5678 5679 5680 5681 5683 5684 5685 5686 5686 5687 5687 5687 5687 5686 5686 5685 5683 5682 5680 5678 5676 5675 5673 5671
5626 5629 5632 5635 5638 5641 5644 5647 5649 5652 5654 5658 5660 5662 5663 5665 5666 5667 5669 5670 5671 5671 5672 5672 5673 5673 5672 5672 5671 5670 5668 5667 5665 5662 5660 5658 5657 5656
5611 5614 5617 5620 5623 5626 5629 5631 5634 5637 5639 5642 5645 5647 5649 5650 5651 5653 5654 5655 5656 5656 5657 5657 5657 5657 5657 5656 5656 5654 5652 5650 5648 5646 5644 5642 5640 5639
5597 5599 5602 5605 5607 5610 5613 5616 5619 5622 5624 5627 5630 5632 5633 5635 5636 5637 5638 5639 5640 5641 5642 5642 5642 5643 5641 5640 5639 5637 5636 5634 5632 5630 5628 5626 5624 5623
5582 5585 5587 5590 5592 5595 5598 5600 5603 5606 5609 5611 5614 5616 5618 5619 5620 5621 5622 5624 5626 5627 5626 5626 5625 5626 5625 5624 5623 5621 5619 5617 5615 5613 5611 5609 5607 5606
5567 5569 5572 5575 5577 5580 5582 5585 5587 5590 5593 5596 5598 5600 5602 5604 5605 5606 5606 5607 5608 5608 5608 5610 5609 5609 5608 5607 5606 5604 5602 5600 5598 5596 5594 5592 5590 5589
5551 5554 5557 5559 5562 5564 5567 5569 5571 5574 5577 5579 5582 5584 5584 5585 5587 5588 5589 5590 5591 5591 5590 5592 5592 5591 5591 5589 5587 5586 5584 5582 5580 5578 5576 5574 5573 5571
5536 5539 5541 5544 5546 5549 5551 5554 5556 5558 5559 5562 5564 5566 5567 5568 5569 5570 5571 5572 5574 5574 5572 5573 5573 5573 5573 5572 5569 5567 5565 5563 5562 5560 5558 5556 5554 5553
5521 5524 5526 5528 5530 5532 5534 5537 5539 5542 5543 5545 5547 5548 5550 5551 5552 5553 5554 5554 5555 5556 5555 5554 5554 5554 5555 5555 5552 5549 5547 5545 5543 5541 5539 5537 5535 5533
5506 5508 5510 5512 5514 5516 5518 5520 5523 5525 5526 5528 5530 5531 5533 5534 5535 5536 5536 5537 5537 5538 5537 5536 5536 5535 5534 5537 5536 5532 5529 5527 5524 5522 5520 5518 5516 5514
5490 5493 5495 5497 5499 5501 5502 5505 5506 5508 5510 5512 5513 5515 5516 5517 5518 5519 5519 5519 5519 5520 5519 5518 5518 5517 5516 5517 5517 5515 5512 5509 5506 5504 5502 5500 5497 5495
5475 5477 5479 5481 5483 5485 5487 5488 5490 5491 5493 5495 5496 5498 5499 5500 5501 5501 5502 5502 5502 5502 5502 5501 5500 5500 5498 5498 5498 5496 5494 5492 5488 5486 5485 5482 5480 5477
5460 5462 5464 5465 5467 5469 5471 5472 5474 5475 5477 5478 5480 5481 5482 5483 5484 5484 5485 5485 5486 5486 5485 5483 5483 5482 5481 5480 5479 5478 5476 5474 5472 5469 5467 5465 5462 5459
5445 5447 5449 5451 5452 5454 5456 5457 5458 5459 5461 5462 5463 5464 5466 5467 5468 5468 5469 5469 5469 5470 5469 5467 5465 5464 5464 5463 5462 5460 5458 5456 5454 5451 5449 5448 5446 5443
5430 5432 5434 5436 5438 5439 5440 5442 5443 5444 5445 5446 5447 5448 5449 5450 5451 5452 5452 5453 5453 5453 5452 5451 5449 5448 5448 5447 5445 5442 5441 5439 5437 5434 5432 5431 5430 5427
5417 5419 5420 5422 5424 5425 5426 5427 5428 5429 5430 5431 5432 5432 5433 5434 5435 5436 5436 5436 5436 5436 5435 5434 5433 5431 5431 5431 5430 5426 5424 5422 5420 5419 5416 5414 5413 5411
5404 5406 5407 5409 5410 5411 5412 5413 5414 5415 5415 5416 5417 5417 5418 5419 5419 5420 5420 5420 5420 5420 5419 5418 5416 5415 5414 5414 5414 5412 5408 5406 5404 5403 5401 5398 5396 5395
5392 5393 5394 5396 5397 5398 5398 5399 5400 5401 5401 5402 5403 5403 5403 5404 5404 5405 5404 5404 5404 5403 5403 5402 5400 5398 5397 5396 5397 5397 5394 5390 5387 5386 5384 5382 5381 5379
5379 5381 5382 5383 5384 5385 5386 5387 5387 5388 5388 5389 5389 5389 5389 5390 5390 5390 5389 5389 5388 5388 5387 5386 5384 5382 5381 5380 5380 5380 5378 5375 5372 5369 5367 5365 5363 5363
5367 5368 5369 5371 5372 5373 5373 5374 5375 5375 5375 5376 5376 5376 5376 5376 5376 5375 5375 5374 5373 5372 5371 5370 5369 5367 5365 5364 5363 5362 5361 5359 5356 5355 5353 5349 5347 5345
Wind_Speed
53 53 54 53 53 52 52 52 51 50 49 48 48 47 47 47 46 46 45 45 45 45 45 45 45 45 45 44 44 45 45 45 45 46 47 47 46 46
53 53 54 54 53 53 52 52 52 52 50 50 50 48 48 48 48 48 47 47 47 47 47 47 47 47 47 47 46 47 47 48 48 49 49 49 49 49
53 53 53 54 54 53 52 52 52 52 52 51 50 50 50 49 49 49 49 49 49 50 49 49 49 49 49 49 49 49 49 50 51 51 51 50 50 50
53 53 53 53 54 54 53 53 53 53 53 53 52 52 51 51 51 51 51 51 51 51 51 51 51 51 51 51 52 51 52 53 53 52 52 52 52 52
54 54 53 53 54 55 55 55 55 55 55 54 53 53 53 53 53 53 52 52 52 53 53 52 53 53 53 53 53 54 54 55 55 54 54 54 54 54
54 55 55 55 54 55 56 56 56 55 56 55 55 54 55 55 55 55 54 54 54 54 54 54 54 55 55 55 56 56 57 57 57 57 56 56 55 56
54 55 55 56 56 56 56 56 57 56 56 56 56 56 56 56 56 56 57 57 56 56 56 56 56 56 57 57 58 58 59 59 59 59 58 57 57 57
55 55 55 56 57 57 57 56 57 58 58 58 58 58 57 57 58 58 58 58 58 58 58 58 59 58 58 59 60 60 60 60 60 60 59 58 58 57
55 55 55 55 56 56 56 58 59 59 59 58 59 59 59 59 59 59 59 59 59 59 60 60 61 61 61 61 61 61 61 61 61 60 60 59 59 59
55 55 55 55 55 56 57 57 58 59 59 59 59 59 59 60 60 60 60 60 60 61 62 62 63 63 64 63 63 62 62 62 62 61 61 61 61 61
54 55 55 55 56 57 58 58 58 59 60 60 60 60 59 60 60 60 61 61 61 61 62 63 63 63 63 63 63 63 63 63 63 63 63 63 62 62
53 53 54 54 56 57 57 58 58 58 60 60 60 60 60 59 60 60 61 61 61 60 61 61 62 63 62 62 63 64 64 64 64 64 64 64 63 62
53 53 53 53 54 55 55 56 56 57 59 60 60 60 60 59 60 60 60 61 60 60 60 61 62 62 62 62 62 63 63 63 63 63 63 63 63 62
53 53 53 53 53 54 54 54 55 56 56 57 58 59 59 59 59 59 60 60 59 59 60 60 60 61 61 61 60 60 60 61 61 61 61 61 61 61
51 52 52 53 53 53 54 54 55 56 56 56 56 57 57 58 58 58 59 59 58 58 58 59 59 59 59 59 58 58 58 58 59 59 59 59 60 60
51 51 51 52 52 52 52 53 53 54 54 54 54 54 55 55 55 55 55 56 56 57 58 58 59 59 58 58 57 57 57 57 57 58 58 58 58 58
49 49 50 50 50 51 51 51 51 51 52 52 52 53 53 53 53 54 54 54 55 55 56 57 57 58 58 57 57 57 57 57 56 56 56 56 55 56
46 46 47 47 48 48 49 49 49 50 50 50 51 51 51 52 52 52 53 53 53 54 54 55 56 57 57 56 57 56 56 55 54 54 54 53 53 54
44 44 44 44 45 46 46 46 46 47 47 48 48 48 49 49 50 51 51 52 53 53 54 55 56 56 56 54 53 54 53 52 52 52 52 52 51 52
42 42 42 42 42 43 43 44 44 44 45 46 46 46 47 47 48 49 50 52 52 53 53 53 54 54 54 53 51 51 52 52 52 52 52 52 51 51
40 40 40 41 41 42 42 43 43 43 44 45 45 45 46 46 46 47 48 49 51 52 52 52 53 53 53 52 51 50 51 52 52 52 52 52 50 50
39 39 39 40 40 40 41 41 41 42 42 43 44 44 45 45 45 46 47 48 49 51 51 51 51 52 52 52 52 51 50 51 51 51 52 52 51 49
38 38 39 39 39 39 40 40 40 40 41 41 42 43 43 44 44 45 46 47 48 48 49 49 50 50 51 52 51 51 50 50 50 50 50 51 51 49
Wind_Direction
255 255 253 254 255 255 256 257 258 259 260 260 260 260 261 262 263 264 265 265 266 266 267 268 269 269 270 272 273 274 276 276 277 278 280 279 278 277
255 254 253 254 254 255 256 257 258 258 259 260 260 261 261 262 262 264 265 265 265 266 267 268 269 269 270 271 273 274 276 277 277 279 279 278 277 277
255 254 253 254 254 255 256 257 257 258 258 259 260 261 262 263 263 264 265 266 266 267 267 268 269 270 271 272 273 274 276 277 278 278 279 278 277 276
255 255 254 254 254 255 256 257 258 259 259 258 259 260 261 263 264 265 265 265 266 267 267 268 269 270 271 272 273 275 276 277 278 278 278 277 276 276
257 256 256 256 256 256 257 258 259 259 259 259 259 261 262 263 264 265 265 265 266 267 267 268 269 270 271 273 274 275 276 277 278 278 277 276 276 276
257 257 257 257 257 257 257 257 258 259 259 259 260 261 262 264 265 265 266 266 267 267 267 269 270 270 272 273 274 275 276 277 277 277 278 276 276 276
257 257 257 257 257 257 257 257 258 258 259 259 260 261 262 264 265 266 267 267 267 267 267 269 270 271 272 273 274 276 277 277 277 278 278 278 277 276
256 256 257 258 258 257 257 257 258 258 259 260 260 261 262 264 266 266 267 268 268 269 269 270 271 271 272 273 275 276 277 277 278 278 278 278 277 276
255 256 257 258 257 257 257 257 258 258 259 260 261 262 263 265 266 267 267 268 269 269 270 271 271 272 273 274 275 276 276 277 277 278 277 278 277 277
256 256 257 257 257 258 258 258 258 258 259 261 262 263 264 265 266 267 267 269 269 270 271 271 272 273 274 274 275 276 276 277 277 277 277 277 277 277
257 257 257 257 258 259 259 259 259 260 260 261 262 263 264 266 267 267 268 269 270 271 272 272 272 273 273 274 275 276 277 278 277 276 276 276 277 277
258 258 258 258 258 259 260 260 261 261 261 261 263 264 265 265 267 268 269 269 270 271 272 272 272 273 273 274 275 276 277 278 278 277 277 277 277 276
258 258 259 259 259 259 260 261 261 262 262 263 263 264 265 265 267 268 269 270 271 271 272 273 273 274 274 274 274 276 277 278 278 278 278 278 278 277
259 259 258 259 259 260 261 262 263 264 264 264 264 265 265 266 266 267 268 270 271 272 272 273 274 274 275 275 275 276 277 278 278 278 278 278 278 278
259 259 259 259 260 261 262 263 264 265 266 266 266 266 266 266 267 268 269 269 270 272 272 273 274 275 275 276 276 277 277 277 278 278 278 279 278 278
259 260 260 260 261 262 263 264 265 266 266 266 266 266 266 267 267 268 269 269 270 271 272 274 274 275 275 276 277 277 278 278 278 278 279 279 279 279
260 260 260 261 261 262 263 264 264 265 266 266 266 266 266 267 267 267 268 269 270 271 272 273 274 274 276 277 278 278 279 279 279 279 279 279 279 279
260 260 261 261 261 262 263 264 264 265 267 266 266 267 267 267 267 268 268 269 270 272 272 273 273 274 276 277 278 279 280 280 280 279 280 280 280 280
260 260 261 262 262 262 263 264 264 266 266 267 268 268 268 268 268 269 269 270 271 272 272 273 274 275 275 276 278 279 279 280 280 280 281 281 281 280
260 260 261 262 262 263 264 264 265 266 267 268 268 269 269 269 270 270 271 272 272 272 273 273 274 275 275 276 277 278 279 280 281 281 281 282 282 282
260 260 261 262 263 263 264 264 265 266 268 268 269 270 269 270 270 271 272 273 274 274 274 274 275 275 276 276 277 278 279 281 282 282 282 282 282 281
260 260 260 261 262 263 263 264 265 266 268 269 270 271 271 271 272 274 274 275 276 276 275 275 276 276 276 277 278 279 279 280 281 282 282 282 282 281
261 261 261 261 262 263 263 264 266 268 269 271 272 272 272 273 274 276 276 277 278 278 277 277 277 278 279 279 279 279 279 279 280 281 282 282 282 282